DMSP 5D-2 F13 DEB, 40509

Orbit data source: Space-Track

DMSP 5D-2 F13 DEB, 40509 is space debris in SSO originally from a launch on Fri, 24 Mar 1995 UTC launched from the Air Force Western Test Range (AFWTR). Debris objects in space refer to the collection of defunct objects orbiting the Earth. Examples of debris include non-operational satellites, rocket bodies, and fragments generated from explosions, collisions, or faulty payload assembly.

Loading next visibility...
DMSP 5D-2 F13 DEB details
Identifier
40509, 1995-015CV
Orbit
SSO
Last TLE update2 days ago
Origin
Flag of USUSAF SMC (US)
ManufacturerUnknown
MissionSpacecraft
Bus & MotorUnknown
MassUnknown
Launch date (UTC)
1995-03-24 (30 years ago)
Launch vehicleUnknown
Launch site
Air Force Western Test Range (AFWTR)
Object type
Payload
Rocket body
Debris
Shape & HBRUnknown
Radar Cross SectionSmall (<0.1 m²)

Expand to show TLE details & history

TLE from 2 days ago
0 DMSP 5D-2 F13 DEB
1 40509U 95015CV  24359.26456733  .00001009  00000-0  47385-3 0  9997
2 40509  98.6741  13.7311 0024571 100.3948 260.0001 14.22087668505884
Epoch: 2024-12-24T06:20Z
Definitive object data (Epoch: 2024-12-24T06:20:58.617Z)
Latitude
Longitude-174.7883°
Altitude824.333 km
Speed7.439 km/s
True Right ascension00h 54m 55s
True Declination0° 00' 00"
Sunlit
Object was in daylight at TLE epoch
Visualization TLE readout
Latitude-42.73154°
Longitude-164.59285°
Altitude847.63 km
Speed7.421 km/s
Apparent Right ascension23h 48m 14s
Apparent Declination-44° 48' 42"
Sunlit
Object is in daylight
Visualization observer readout
Local Sidereal Time09:50:48
Azimuth247.538° W
Elevation-67.89°
Doppler factor1
Orbital elements
Apogee altitude833.131 km
Perigee altitude797.78 km
Semi-major axis7,193.592 km
Eccentricity0.0024571
Inclination98.6741°
RAAN13.7311°
Arg. of periapsis100.3948°
True anomaly259.72296°
Mean anomaly260.0001°
Eccentric anomaly259.86152°
Mean motion3.55733 °/min
BSTAR0.00047385
Orbital period101.2 mins
Loading maneuver chart data...

DMSP 5D-2 F13 DEB Visibility forecast

Observer location: undefined°, undefined

Span
Click to sort rows by Start time (UTC) header in descending order
Start Az.
Max El. time (UTC)
Max El. Az.
Max El.
End time (UTC)
End Az.
7 mins2024-12-26 12:59:36.700Z51.525° ENE2024-12-26 13:02:36.700Z90.721° ESE19.531°2024-12-26 13:06:36.700Z141.088° SSE
8 mins2024-12-26 14:39:36.700Z353.87° N2024-12-26 14:42:36.700Z304.041° NW35.38°2024-12-26 14:47:36.700Z219.026° SW
7 mins2024-12-27 00:21:36.700Z117.04° SE2024-12-27 00:24:36.700Z64.847° ENE28.336°2024-12-27 00:28:36.700Z8.757° NNE
7 mins2024-12-27 02:01:36.700Z216.45° SW2024-12-27 02:04:36.700Z266.41° W26.479°2024-12-27 02:08:36.700Z321.595° NNW
|